DW9440 Weather Reports


time (UTC)temp
F
wind
direction
speed
knots
gust
knots
rain 1hr
in
rain 24hr
in
rain mn
in
humidity
%
barometer
mb
20260906140013 72 85 3.5 7.8 0.00 0.00 0.00 55 1016.5
20260906134513 72 62 4.3 7.0 0.00 0.00 0.00 55 1016.4
20260906133011 72 53 3.5 6.1 0.00 0.00 0.00 55 1016.5
20260906131515 71 47 2.6 5.2 0.00 0.00 0.00 55 1016.4
20260906130020 71 29 2.6 6.1 0.00 0.00 0.00 56 1016.3
20260906124505 71 61 2.6 6.1 0.00 0.00 0.00 55 1016.2
20260906123010 71 43 2.6 5.2 0.00 0.00 0.00 55 1016.0
20260906121504 71 38 1.7 6.1 0.00 0.00 0.00 55 1015.9
20260906120000 71 27 0.0 1.7 0.00 0.00 0.00 55 1015.7
20260906114558 71 53 0.9 4.3 0.00 0.00 0.00 55 1015.3
20260906113057 71 63 1.7 2.6 0.00 0.00 0.00 55 1015.1
20260906111556 71 48 1.7 2.6 0.00 0.00 0.00 55 1015.1
20260906110054 71 42 1.7 3.5 0.00 0.00 0.00 55 1015.0
20260906104552 71 44 1.7 4.3 0.00 0.00 0.00 55 1014.9
20260906103054 71 58 0.9 5.2 0.00 0.00 0.00 55 1014.7
20260906101550 71 50 2.6 4.3 0.00 0.00 0.00 56 1014.6
20260906100049 71 63 1.7 4.3 0.00 0.00 0.00 56 1014.5
20260906094549 71 89 1.7 3.5 0.00 0.00 0.00 56 1014.4
20260906093053 71 56 1.7 4.3 0.00 0.00 0.00 57 1014.3
20260906091547 71 74 1.7 3.5 0.00 0.00 0.00 58 1014.0
20260906090045 71 65 2.6 6.1 0.00 0.00 0.00 62 1014.2
20260906084543 71 77 1.7 5.2 0.00 0.00 0.00 65 1014.2
20260906083047 71 63 1.7 6.1 0.00 0.00 0.00 68 1014.2
20260906081543 72 49 2.6 5.2 0.00 0.00 0.00 69 1014.3
20260906080040 72 44 4.3 10.4 0.00 0.00 0.00 68 1014.2
20260906074538 72 65 5.2 9.6 0.00 0.00 0.00 68 1014.1
20260906073036 73 66 7.0 11.3 0.00 0.00 0.00 67 1014.3
20260906071536 73 53 7.8 12.2 0.00 0.00 0.00 67 1014.5
20260906070032 73 51 3.5 7.0 0.00 0.00 0.00 68 1014.5
20260906064535 73 62 2.6 6.1 0.00 0.00 0.00 69 1014.5
20260906063028 74 48 3.5 5.2 0.00 0.00 0.00 69 1014.5
20260906061527 74 42 1.7 3.5 0.00 0.00 0.00 71 1014.6
20260906060023 74 50 0.9 2.6 0.00 0.00 0.00 72 1014.5
20260906054521 74 39 0.9 2.6 0.00 0.00 0.00 73 1014.2
20260906053023 75 71 0.9 3.5 0.00 0.00 0.00 75 1014.0
20260906051516 75 54 1.7 2.6 0.00 0.00 0.00 77 1013.9
20260906050038 76 53 1.7 3.5 0.00 0.00 0.00 78 1013.6
20260906044512 76 53 1.7 7.0 0.00 0.00 0.00 77 1013.4
20260906043011 77 56 1.7 8.7 0.00 0.00 0.00 77 1013.4
20260906041510 77 58 5.2 7.8 0.00 0.00 0.00 76 1013.2
20260906040008 78 58 7.0 11.3 0.00 0.00 0.00 75 1013.1
20260906034506 79 65 6.1 12.2 0.00 0.00 0.00 76 1013.1
20260906033005 79 75 8.7 13.9 0.00 0.00 0.00 75 1013.0
20260906031504 80 62 4.3 11.3 0.00 0.00 0.00 76 1012.9
20260906030004 81 60 5.2 8.7 0.00 0.00 0.00 76 1012.8
20260906024501 82 52 2.6 6.1 0.00 0.00 0.00 77 1012.7
20260906023000 82 62 2.6 7.0 0.00 0.00 0.00 78 1012.5
20260906021502 83 46 4.3 9.6 0.00 0.00 0.00 77 1012.2
20260906014614 84 49 1.7 4.3 0.00 0.00 0.00 77 1011.7
20260906013059 84 38 0.0 1.7 0.00 0.00 0.00 76 1011.4
20260906011604 85 13 0.0 0.9 0.00 0.00 0.00 76 1011.3
20260906010058 85 3 0.0 2.6 0.00 0.00 0.00 75 1011.2
20260906004559 86 47 1.7 3.5 0.00 0.00 0.00 74 1011.0
20260906003105 87 31 0.0 1.7 0.00 0.00 0.00 73 1011.0
20260906001555 87 44 1.7 4.3 0.00 0.00 0.00 72 1011.2
20260906000056 88 13 2.6 5.2 0.00 0.00 0.00 71 1011.1
20260905234607 89 349 1.7 7.0 0.00 0.00 0.00 69 1010.9
20260905233054 90 57 3.5 7.8 0.00 0.00 0.00 67 1011.1
20260905231556 91 30 3.5 7.0 0.00 0.00 0.00 66 1011.0
20260905230053 91 55 2.6 7.0 0.00 0.00 0.00 64 1010.8
20260905224551 92 23 4.3 8.7 0.00 0.00 0.00 63 1010.9
20260905223052 92 54 2.6 7.8 0.00 0.00 0.00 62 1010.9
20260905221550 92 299 2.6 5.2 0.00 0.00 0.00 62 1010.9
20260905220052 92 51 0.9 8.7 0.00 0.00 0.00 62 1010.9
20260905214601 93 41 2.6 5.2 0.00 0.00 0.00 59 1010.9
20260905213048 93 322 3.5 9.6 0.00 0.00 0.00 60 1010.9
20260905211546 94 48 2.6 7.8 0.00 0.00 0.00 60 1011.0
20260905210047 94 39 1.7 7.0 0.00 0.00 0.00 61 1011.0
20260905204543 95 35 2.6 6.1 0.00 0.00 0.00 58 1011.1
20260905203043 95 356 1.7 3.5 0.00 0.00 0.00 57 1011.2
20260905201542 96 13 2.6 5.2 0.00 0.00 0.00 55 1011.3
20260905200046 96 326 0.0 7.0 0.00 0.00 0.00 56 1011.3
20260905194541 95 41 2.6 7.8 0.00 0.00 0.00 54 1011.5
20260905193039 99 266 0.9 3.5 0.00 0.00 0.00 51 1011.5
20260905191536 98 32 2.6 6.1 0.00 0.00 0.00 51 1011.5
20260905190035 96 244 0.9 2.6 0.00 0.00 0.00 54 1011.5
20260905184538 97 233 1.7 4.3 0.00 0.00 0.00 54 1011.7
20260905183036 96 105 0.9 4.3 0.00 0.00 0.00 53 1011.8
20260905181532 97 278 1.7 6.1 0.00 0.00 0.00 53 1012.0
20260905180030 96 275 4.3 6.1 0.00 0.00 0.00 51 1012.1
20260905174535 96 263 2.6 5.2 0.00 0.00 0.00 55 1012.2
20260905173027 95 240 1.7 4.3 0.00 0.00 0.00 56 1012.4
20260905171526 95 53 0.9 5.2 0.00 0.00 0.00 56 1012.4
20260905170026 94 326 0.9 5.2 0.00 0.00 0.00 57 1012.5
20260905164524 95 30 0.0 2.6 0.00 0.00 0.00 57 1012.5
20260905163023 95 13 0.0 3.5 0.00 0.00 0.00 59 1012.6
20260905161519 94 257 0.0 2.6 0.00 0.00 0.00 60 1012.5
20260905160036 94 250 0.9 2.6 0.00 0.00 0.00 59 1012.7
20260905154514 93 251 0.0 2.6 0.00 0.00 0.00 61 1012.7
20260905153012 91 267 0.0 1.7 0.00 0.00 0.00 63 1012.6
20260905151508 90 262 0.0 0.9 0.00 0.00 0.00 63 1012.4
20260905150006 89 253 0.9 3.5 0.00 0.00 0.00 66 1012.5
20260905144601 87 278 0.0 0.0 0.00 0.00 0.00 68 1012.2
20260905143058 86 250 0.0 0.0 0.00 0.00 0.00 69 1012.2
20260905141610 84 262 0.0 0.0 0.00 0.00 0.00 71 1012.1